Weather History for KOWD - May, 2013

Change the Weather History Date:

Saturday, May 25, 2013

  Actual Average Record
Temperature  
Mean Temperature 48 °F -  
Max Temperature 53 °F 67 °F 93 °F (2007)
Min Temperature 42 °F 46 °F 37 °F (2008)
Degree Days  
Heating Degree Days 18    
Moisture  
Dew Point 48 °F    
Average Humidity 97    
Maximum Humidity 100    
Minimum Humidity 89    
Precipitation  
Precipitation 0.26 in - - ()
Sea Level Pressure  
Sea Level Pressure 29.75 in    
Wind  
Wind Speed 8 mph (NNW)    
Max Wind Speed 15 mph    
Max Gust Speed 23 mph    
Visibility 5 miles    
Events Rain    
Averages and records for this station are not official NWS values.
T = Trace of Precipitation, MM = Missing Value Source: NWS Daily Summary

Daily Weather History Graph

Daily Weather History Graph

Search for Another Location

Airport or City:

Trip Planner

Search our weather history database for the weather conditions in past years. The results will help you decide how hot, cold, wet, or windy it might be!

Date:

Astronomy

May. 25, 2013 Rise Set
Actual Time 5:14 AM EDT 8:08 PM EDT
Civil Twilight 4:41 AM EDT 8:42 PM EDT
Nautical Twilight 3:59 AM EDT 9:24 PM EDT
Astronomical Twilight 3:11 AM EDT 10:13 PM EDT
Moon 8:53 PM EDT (5/25) 5:39 AM EDT (5/25)
Length of Visible Light 16h 00m
Length of Day
14h 53m
Full, 100% of the Moon is Illuminated
May 25
Full
May 31
Last Quarter
Jun 8
New
Jun 16
First Quarter
Jun 23
Full

Hourly Weather History & Observations

Time (EDT) Temp. Windchill Dew Point Humidity Pressure Visibility Wind Dir Wind Speed Gust Speed Precip Events Conditions
12:20 AM 50.0 °F - 50.0 °F 100% 29.80 in 2.5 mi NNW 5.8 mph - N/A   Overcast
12:45 AM 50.0 °F - 50.0 °F 100% 29.80 in 3.0 mi NNW 6.9 mph - 0.01 in   Overcast
12:53 AM 50.0 °F - 50.0 °F 100% 29.79 in 3.0 mi NNW 8.1 mph - 0.01 in   Overcast
1:28 AM 50.0 °F - 50.0 °F 100% 29.79 in 2.5 mi NNW 6.9 mph - N/A   Overcast
1:53 AM 50.0 °F - 50.0 °F 100% 29.78 in 3.0 mi NNW 5.8 mph - 0.06 in Rain Light Rain
2:53 AM 50.0 °F - 50.0 °F 100% 29.78 in 4.0 mi NNW 8.1 mph - 0.04 in   Overcast
3:53 AM 50.0 °F - 50.0 °F 100% 29.75 in 5.0 mi North 8.1 mph - 0.03 in Rain Light Rain
4:53 AM 50.0 °F - 48.9 °F 96% 29.76 in 8.0 mi North 8.1 mph 17.3 mph 0.00 in   Overcast
5:24 AM 50.0 °F - 48.2 °F 94% 29.76 in 5.0 mi NNW 5.8 mph - 0.01 in   Overcast
5:37 AM 50.0 °F - 50.0 °F 100% 29.76 in 2.5 mi NNW 9.2 mph - 0.01 in Rain Light Rain
5:53 AM 50.0 °F - 50.0 °F 100% 29.76 in 2.0 mi NNW 3.5 mph - 0.02 in Rain Light Rain
6:28 AM 50.0 °F - 50.0 °F 100% 29.76 in 3.0 mi North 5.8 mph - 0.02 in Rain Light Rain
6:37 AM 50.0 °F - 50.0 °F 100% 29.76 in 4.0 mi North 5.8 mph - 0.02 in   Overcast
6:49 AM 50.0 °F - 48.2 °F 94% 29.76 in 8.0 mi North 5.8 mph - 0.02 in   Overcast
6:53 AM 50.0 °F - 50.0 °F 100% 29.75 in 4.0 mi North 6.9 mph - 0.02 in   Overcast
7:00 AM 50.0 °F - 50.0 °F 100% 29.76 in 6.0 mi Variable 4.6 mph - N/A   Overcast
7:09 AM 50.0 °F - 50.0 °F 100% 29.76 in 5.0 mi NNW 5.8 mph - N/A   Overcast
7:18 AM 50.0 °F - 50.0 °F 100% 29.76 in 5.0 mi NW 5.8 mph - N/A   Overcast
7:53 AM 50.0 °F - 50.0 °F 100% 29.75 in 3.0 mi North 5.8 mph - 0.00 in   Overcast
8:53 AM 51.1 °F - 50.0 °F 96% 29.75 in 5.0 mi NNW 6.9 mph - N/A   Overcast
9:53 AM 51.1 °F - 50.0 °F 96% 29.75 in 4.0 mi NNW 9.2 mph - N/A   Overcast
10:00 AM 51.8 °F - 51.8 °F 100% 29.74 in 3.0 mi North 6.9 mph - 0.01 in   Overcast
10:07 AM 51.8 °F - 51.8 °F 100% 29.74 in 2.5 mi NNW 8.1 mph - 0.01 in   Overcast
10:16 AM 51.8 °F - 50.0 °F 94% 29.74 in 2.0 mi NW 9.2 mph - 0.01 in Rain Light Rain
10:30 AM 51.8 °F - 51.8 °F 100% 29.73 in 3.0 mi NNW 5.8 mph - 0.01 in   Overcast
10:53 AM 52.0 °F - 51.1 °F 97% 29.73 in 4.0 mi NNW 11.5 mph 17.3 mph 0.01 in   Overcast
11:08 AM 51.8 °F - 51.8 °F 100% 29.73 in 4.0 mi NNW 6.9 mph - N/A   Overcast
11:53 AM 52.0 °F - 51.1 °F 97% 29.72 in 4.0 mi NNW 8.1 mph - N/A   Overcast
12:53 PM 53.1 °F - 51.1 °F 93% 29.72 in 4.0 mi North 8.1 mph - 0.01 in   Overcast
1:53 PM 52.0 °F - 51.1 °F 97% 29.71 in 5.0 mi NW 8.1 mph - 0.00 in   Overcast
2:00 PM 51.8 °F - 51.8 °F 100% 29.71 in 2.0 mi NW 6.9 mph - 0.00 in Rain Light Rain
2:53 PM 52.0 °F - 51.1 °F 97% 29.70 in 2.0 mi NW 8.1 mph - 0.02 in   Overcast
3:53 PM 51.1 °F - 50.0 °F 96% 29.70 in 2.0 mi NW 9.2 mph 18.4 mph 0.01 in   Overcast
4:53 PM 48.9 °F - 46.9 °F 93% 29.71 in 2.0 mi NW 11.5 mph 20.7 mph 0.00 in   Overcast
5:00 PM 48.2 °F - 46.4 °F 93% 29.71 in 6.0 mi NW 11.5 mph 20.7 mph N/A   Overcast
5:53 PM 46.9 °F - 45.0 °F 93% 29.72 in 6.0 mi NW 9.2 mph 21.9 mph 0.01 in   Overcast
6:00 PM 46.4 °F 41.9 °F 44.6 °F 93% 29.72 in 6.0 mi NW 9.2 mph 19.6 mph N/A   Overcast
6:10 PM 46.4 °F 40.1 °F 44.6 °F 93% 29.73 in 6.0 mi NW 15.0 mph 21.9 mph N/A   Overcast
6:18 PM 46.4 °F 41.5 °F 44.6 °F 93% 29.73 in 6.0 mi NNW 10.4 mph 20.7 mph N/A   Overcast
6:32 PM 46.4 °F 42.9 °F 44.6 °F 93% 29.73 in 7.0 mi NNW 6.9 mph - N/A   Overcast
6:50 PM 44.6 °F 38.8 °F 44.6 °F 100% 29.74 in 5.0 mi NW 11.5 mph 23.0 mph N/A   Overcast
6:53 PM 45.0 °F 38.5 °F 44.1 °F 97% 29.74 in 5.0 mi WNW 13.8 mph 23.0 mph N/A   Overcast
7:53 PM 44.1 °F 39.0 °F 43.0 °F 96% 29.75 in 5.0 mi WNW 9.2 mph 20.7 mph 0.01 in Rain Light Rain
8:53 PM 43.0 °F 36.8 °F 42.1 °F 97% 29.75 in 8.0 mi NW 11.5 mph - 0.01 in   Overcast
9:00 PM 42.8 °F 36.6 °F 42.8 °F 100% 29.75 in 8.0 mi NW 11.5 mph - N/A   Overcast
9:53 PM 43.0 °F 37.7 °F 41.0 °F 93% 29.75 in 10.0 mi WNW 9.2 mph 17.3 mph N/A   Overcast
10:53 PM 43.0 °F 36.8 °F 39.9 °F 89% 29.75 in 10.0 mi WNW 11.5 mph 18.4 mph N/A   Overcast
11:53 PM 43.0 °F 37.7 °F 39.9 °F 89% 29.74 in 10.0 mi WNW 9.2 mph - N/A   Overcast